Location: Anglesey
(53.1800°N, 4.2200°W)
Time: 16:56:29
(UTC+00:00)

ISS - Visible Passes

Search period start: 22 March 2019 00:00
Search period end: 01 April 2019 01:00
Orbit: 406 x 411 km, 51.6° (Epoch: 23 March)

Date Brightness Start Highest point End Pass type
(mag) Time Alt. Az. Time Alt. Az. Time Alt. Az.
22 Mar -1.9 20:12:04 10° SSW 20:13:33 18° S 20:13:33 18° S visible
23 Mar -1.8 19:21:57 10° S 19:23:43 14° SE 19:25:12 11° ESE visible
23 Mar -1.9 20:56:33 10° SW 20:57:58 22° SW 20:57:58 22° SW visible
24 Mar -3.0 20:05:44 10° SW 20:08:44 32° SSE 20:09:24 29° SE visible
24 Mar -0.9 21:41:46 10° WSW 21:42:10 13° WSW 21:42:10 13° WSW visible
25 Mar -2.4 19:15:06 10° SSW 19:17:49 24° SSE 19:20:32 10° E visible
25 Mar -3.3 20:50:44 10° WSW 20:53:27 49° SW 20:53:27 49° SW visible
26 Mar -3.5 19:59:46 10° WSW 20:02:58 48° SSE 20:04:37 24° E visible
26 Mar -1.5 21:36:05 10° W 21:37:21 21° W 21:37:21 21° W visible
27 Mar -3.9 20:45:01 10° W 20:48:18 68° S 20:48:24 67° SSE visible
28 Mar -3.7 19:53:56 10° WSW 19:57:12 63° S 19:59:24 19° E visible
28 Mar -2.0 21:30:23 10° W 21:32:08 27° W 21:32:08 27° W visible
29 Mar -3.8 20:39:16 10° W 20:42:33 65° S 20:43:03 54° SE visible
30 Mar -3.8 19:48:08 10° W 19:51:26 68° S 19:53:57 16° E visible
30 Mar -2.2 21:24:40 10° W 21:26:41 29° WSW 21:26:41 29° WSW visible
31 Mar -3.5 21:33:30 10° W 21:36:43 51° SSW 21:37:33 39° SSE visible
